{"data":{"norad_id":62402,"epoch":"2026-09-22T09:50:41.834688Z","epoch_age_seconds":147590,"freshness":"FRESH","line1":"1 62402U 24247AB  26265.41020642  .00086550  00000+0  73428-3 0  9993","line2":"2 62402  44.9666  44.7094 0011057 288.6998  71.2700 15.68655606 98735","mean_motion":15.68655606,"eccentricity":0.0011057,"inclination_deg":44.9666,"raan_deg":44.7094,"arg_perigee_deg":288.6998,"mean_anomaly_deg":71.27,"bstar":0.00073428,"rev_number":9873,"period_min":91.798352327439,"perigee_km":355.29231839088,"apogee_km":370.19910642109,"semimajor_km":6740.882712406,"source":"CELESTRAK","updated_at":"2026-09-23T09:00:21.396930Z"}}